Simultaneous Nadir Overpasses (SNOs) Predictions

Prediction of SNOs between AQUA and METOP-C Satellite Orbit:

Table of predicted SNOs for the next 14.0 days since TLE Epoch: 3/11/2023
Index Date (AQUA) Time (AQUA) Lat,Lon (AQUA) SZA (AQUA ) Date (METOP-C) Time (METOP-C) Lat,Lon (METOP-C) SZA (METOP-C ) Distance(km) Time Diff (sec)
1 03/13/2023 02:21:30 -74.25, -39.81 102.65 03/13/2023 02:20:25 -74.23, -39.86 102.66 2.75 65
2 03/13/2023 03:10:57 74.30, 127.73 77.39 03/13/2023 03:11:02 74.32, 127.70 77.41 2.68 5
3 03/13/2023 04:00:28 -74.65, -65.48 102.25 03/13/2023 04:01:38 -74.65, -64.12 102.31 40.27 70
4 03/15/2023 21:04:23 74.28,-140.58 76.28 03/15/2023 21:04:01 74.28,-140.65 76.28 2.28 22
5 03/15/2023 21:53:49 -74.38, 26.85 103.63 03/15/2023 21:54:42 -74.36, 26.89 103.66 2.29 53
6 03/18/2023 14:57:46 74.25, -48.82 75.16 03/18/2023 14:56:59 74.27, -48.92 75.18 3.54 47
7 03/18/2023 15:47:12 -74.34, 118.62 104.77 03/18/2023 15:47:40 -74.35, 118.61 104.76 0.79 28
8 03/21/2023 08:51:06 74.25, 42.88 74.06 03/21/2023 08:49:56 74.24, 42.77 74.07 3.44 70
9 03/21/2023 09:40:32 -74.33,-149.67 105.87 03/21/2023 09:40:37 -74.31,-149.71 105.88 2.18 5
10 03/21/2023 10:30:00 74.45, 17.68 74.25 03/21/2023 10:31:12 74.51, 18.13 74.29 14.64 72
11 03/24/2023 03:33:50 -74.30, -57.90 106.99 03/24/2023 03:33:34 -74.31, -57.96 106.97 1.98 16
12 03/24/2023 04:23:17 74.38, 109.56 73.08 03/24/2023 04:24:12 74.36, 109.51 73.06 2.20 55



Historial Predications of SNOs between AQUA and METOP-C
